Location: Fort Wayne
(41.1310°N, 85.1290°W)
Time: 02:21:04
(UTC-04:00)

Daily predictions for brighter satellites

Satellite Brightness Start Highest point End
(mag) Time Altitude Azimuth Time Altitude Azimuth Time Altitude Azimuth
NOSS 2-3 (D) 3.9 00:05:33 53° SSE 00:06:22 62° ESE 00:11:50 10° NE
Cosmos 389 Rocket 3.4 00:03:47 10° N 00:06:44 39° NE 00:06:44 39° NE
Terra 2.5 00:09:59 35° SW 00:11:20 45° W 00:15:55 10° NNW
Okean 1-7 3.1 00:07:52 10° N 00:12:05 57° E 00:12:15 56° E
ALOS 2 4.2 00:13:37 21° E 00:14:15 22° ENE 00:17:37 10° NNE
Meteor 2-3 Rocket 4.0 00:17:03 45° SE 00:18:05 50° E 00:23:34 10° NNE
Cosmos 372 Rocket 3.9 00:17:21 56° S 00:18:24 75° ESE 00:23:38 10° NNE
Tiangong 1 3.2 00:23:07 10° WNW 00:24:22 22° WNW 00:24:22 22° WNW
Meteor 2-10 Rocket 4.5 00:21:58 10° N 00:27:16 41° ENE 00:28:33 36° ESE
Cosmos 2084 Rocket 4.4 00:28:49 33° ENE 00:28:49 33° ENE 00:31:05 10° NE
Cosmos 1703 Rocket 3.8 00:23:07 10° NNW 00:27:24 57° W 00:27:50 54° WSW
Cosmos 2227 Rocket 3.9 00:23:57 10° WSW 00:28:52 30° NW 00:33:49 10° N
Cosmos 2263 Rocket 4.2 00:29:49 13° E 00:29:49 13° E 00:31:41 10° ENE
ATLAS 2AS CENTAUR R/B 3.8 00:26:46 10° WSW 00:34:06 51° NW 00:42:00 10° NNE
Lacrosse 4 Rocket 2.2 00:35:57 10° NW 00:40:03 43° WSW 00:40:03 43° WSW
Cosmos 1607 4.4 00:37:25 10° NNW 00:43:26 52° NE 00:45:42 35° ESE
Aureole 2 Rocket 3.6 00:41:40 10° NNW 00:43:52 41° NNW 00:43:52 41° NNW
ATLAS 3B R/B 2.9 00:38:23 10° NW 00:45:04 52° WSW 00:46:35 44° SSW
SL-16 R/B 2.7 00:39:54 10° NW 00:45:18 47° WSW 00:46:17 42° SW
Cosmos 2074 Rocket 3.9 00:45:00 52° S 00:46:41 88° E 00:53:01 10° N
Cosmos 2333 Rocket 4.2 00:44:17 10° WNW 00:47:47 17° W 00:49:33 15° WSW
COS B Rocket 4.2 00:44:17 10° NNW 00:48:04 43° W 00:48:12 43° W
CZ-4C R/B 4.1 00:49:56 43° NNE 00:49:56 43° NNE 00:52:39 10° N
Cosmos 2227 4.1 00:49:13 63° S 00:50:07 81° ESE 00:55:50 10° NNE
CZ-2C R/B 4.2 00:46:32 10° NE 00:50:05 20° E 00:50:05 20° E
Cosmos 1689 Rocket 4.2 00:52:09 26° NE 00:52:09 26° NE 00:54:08 10° N
Cosmos 2297 Rocket 4.1 00:50:53 10° WSW 00:55:36 26° NW 01:00:19 10° N
Cosmos 44 3.4 00:57:49 71° SE 00:58:02 72° ESE 01:03:29 10° NE
Cosmos 1782 3.8 00:55:55 10° N 00:59:07 39° NE 00:59:07 39° NE
USA 238 DEB 3.6 00:53:04 10° NW 01:00:08 85° WSW 01:02:06 51° SSE
USA 238 3.6 00:53:10 10° NW 01:00:14 86° WSW 01:02:13 51° SSE
COSMOS 2455 3.7 00:54:54 10° NW 01:00:14 34° WSW 01:01:03 33° SW
Cosmos 1340 Rocket 3.3 01:05:03 56° N 01:05:03 56° N 01:08:12 10° N
Cosmos 1943 4.0 01:01:06 10° NNW 01:06:32 43° ENE 01:08:08 35° E
BREEZE-M DEB (TANK) 3.2 01:00:21 10° WNW 01:08:21 55° NNE 01:09:06 46° ENE
Landsat 5 3.8 01:10:53 63° ENE 01:10:53 63° ENE 01:15:18 10° N
Cosmos 1932 4.5 01:04:32 10° NW 01:10:53 67° WSW 01:11:58 57° SSW
Cosmos 1238 Rocket 4.2 01:14:27 10° N 01:16:55 29° NE 01:16:55 29° NE
Cosmos 2154 Rocket 3.9 01:17:41 60° SSE 01:18:52 77° E 01:25:10 10° N
H-2A R/B 2.7 01:14:50 10° N 01:18:48 74° NNW 01:18:48 74° NNW
Cosmos 2251 Rocket 3.6 01:14:08 10° NNW 01:19:22 60° WSW 01:19:34 59° WSW
Cosmos 1603 3.7 01:13:59 10° NNW 01:19:37 65° WSW 01:20:06 62° SW
Cosmos 1606 3.9 01:18:39 10° N 01:21:35 38° NE 01:21:35 38° NE
SeaSat 1 2.6 01:23:17 56° WSW 01:23:17 56° WSW 01:28:02 10° NW
Meteor 1-27 Rocket 4.0 01:19:20 10° N 01:25:07 60° ENE 01:26:02 53° ESE
Helios 1A Rocket 3.5 01:23:23 10° NNE 01:26:47 53° NE 01:26:47 53° NE
ASTEX 1 3.5 01:25:12 10° N 01:30:02 62° W 01:30:16 61° W
Cosmos 494 Rocket 3.9 01:25:00 10° NNW 01:30:14 70° WSW 01:30:22 70° WSW
Cosmos 1733 Rocket 3.5 01:30:39 54° WNW 01:30:39 54° WNW 01:34:52 10° N
CZ-4C R/B 2.8 01:23:37 10° NNW 01:30:47 83° NE 01:33:37 43° SE
RESURS DK-1 4.3 01:32:36 21° ENE 01:32:36 21° ENE 01:34:36 10° NE
Cosmos 1408 4.2 01:33:18 30° NE 01:33:18 30° NE 01:35:40 10° NNE
NOSS 3-2 (C) 4.3 01:26:19 10° NNW 01:33:45 64° NE 01:38:05 29° SE
Meteor 2-6 Rocket 4.2 01:28:31 10° NNW 01:34:25 82° W 01:35:15 67° S
CZ-4B R/B 3.2 01:37:17 29° NW 01:37:17 29° NW 01:39:13 10° NNW
Cosmos 1892 4.2 01:38:40 31° WNW 01:38:40 31° WNW 01:41:32 10° NNW
Sich 1 Rocket 3.8 01:41:10 69° NW 01:41:10 69° NW 01:45:23 10° N
Cosmos 1378 Rocket 3.8 01:38:15 10° N 01:42:09 65° NNE 01:42:09 65° NNE
Cosmos 1867 4.0 01:38:38 10° NNW 01:44:03 58° NE 01:45:23 45° ESE
Cosmos 1862 4.0 01:46:07 52° NNE 01:46:07 52° NNE 01:49:17 10° NNE
CZ-2C R/B 3.8 01:47:42 43° ESE 01:49:04 52° ENE 01:54:28 10° N
ALOS 2 3.8 01:51:00 32° WNW 01:51:00 32° WNW 01:54:22 10° NNW
Cosmos 962 Rocket 4.4 01:53:34 58° SW 01:54:41 72° W 02:00:49 10° N
GEOS 3 Rocket 3.7 01:54:56 58° WSW 01:54:56 58° WSW 01:59:52 10° NW
Cosmos 2341 Rocket 4.1 01:54:02 55° SW 01:55:23 71° W 02:01:47 10° N
NOSS 3-2 (A) 3.9 01:47:55 10° NW 01:55:28 86° WSW 01:58:20 45° SSE
NOSS 3-4 (A) 3.4 01:54:26 58° SSW 01:55:52 89° ESE 02:02:29 10° NE
NOSS 3-4 (C) 3.4 01:54:33 58° SSW 01:55:58 88° ESE 02:02:34 10° NE
BREEZE-M DEB (TANK) 4.4 01:53:59 13° NW 01:56:06 29° N 02:01:44 10° ENE
Cosmos 1825 3.1 01:57:16 47° NNE 01:57:16 47° NNE 02:00:04 10° N
SL-8 Rocket 4.0 02:00:20 59° SSE 02:01:33 78° E 02:07:53 10° N
BREEZE-M DEB (TANK) 4.3 01:47:23 10° WNW 02:03:09 89° NE 02:05:38 33° ESE
Cosmos 1242 Rocket 4.4 02:03:13 10° NNE 02:05:38 26° NE 02:05:38 26° NE
Cosmos 1844 Rocket 4.4 02:08:12 19° ESE 02:08:49 20° E 02:12:47 10° NE
Cosmos 1782 Rocket 3.7 02:10:41 69° NNW 02:10:41 69° NNW 02:14:42 10° N
Cosmos 2263 Rocket 2.1 02:11:29 67° SW 02:12:17 82° WNW 02:18:00 10° NNE
Okean 2 Rocket 3.1 02:15:39 77° NNW 02:15:39 77° NNW 02:19:55 10° N
Cosmos 2218 Rocket 3.9 02:14:09 59° S 02:15:26 82° E 02:21:49 10° N
MOS 1-B Rocket 4.2 02:22:08 47° WSW 02:22:34 48° W 02:27:58 10° NNW
Cosmos 2366 rocket 3.9 02:24:58 59° S 02:26:15 86° E 02:32:29 10° N
Abrixas rocket 3.9 02:31:34 33° NNE 02:31:34 33° NNE 02:33:48 10° NE
CZ-2C R/B 3.0 02:25:50 10° N 02:30:50 48° WNW 02:31:36 45° W
Cosmos 1975 Rocket 3.7 02:28:11 10° NNW 02:31:49 44° WNW 02:31:49 44° WNW
Cosmos 1371 Rocket 3.9 02:31:53 68° SW 02:32:33 79° WNW 02:37:55 10° NNE
Cosmos 2056 Rocket 3.4 02:32:51 71° SSE 02:33:22 79° ESE 02:38:37 10° NNE
Cosmos 407 Rocket 4.1 02:29:48 10° N 02:34:50 50° ENE 02:36:33 36° ESE
Cosmos 2278 Rocket 4.1 02:36:48 15° ESE 02:38:23 17° E 02:41:53 10° ENE
Cosmos 1536 Rocket 3.6 02:40:02 10° N 02:44:25 70° E 02:44:35 70° E
COSMOS 2406 3.4 02:38:45 10° NNW 02:44:31 68° ENE 02:46:47 37° SE
Cosmos 864 Rocket 4.5 02:44:45 53° SW 02:46:11 71° W 02:52:20 10° N
Okean 1 4.4 02:46:26 10° N 02:50:10 37° ENE 02:50:39 35° E
Cosmos 1727 Rocket 3.9 02:44:06 10° NNW 02:50:18 72° W 02:51:46 52° SSW
Cosmos 1943 4.4 02:45:39 10° NW 02:49:55 26° W 02:49:55 26° W
SL-27 R/B 3.1 02:51:29 10° N 02:54:52 55° NE 02:54:52 55° NE
Iridium 4 Rocket 3.3 02:51:33 10° N 02:56:23 87° E 02:57:15 63° S
Meteor 1-25 Rocket 4.2 02:57:03 52° S 02:58:29 78° E 03:04:18 10° NNE
Landsat 4 4.1 03:01:34 56° E 03:01:44 56° ENE 03:05:28 10° N
USA 234 3.8 02:59:39 10° ESE 03:06:01 57° NE 03:12:23 10° NW
Cosmos 909 Rocket 4.4 03:06:12 37° WSW 03:08:51 64° NW 03:16:17 10° NNE
CENTAUR R/B 3.3 03:01:05 10° NNW 03:08:55 73° NE 03:17:12 10° SE
RESURS DK-1 3.8 03:08:31 26° WNW 03:09:06 27° WNW 03:12:41 10° N
NPP 4.1 03:06:05 10° NNE 03:11:22 53° E 03:13:04 38° SSE
Cosmos 1954 Rocket 4.3 03:06:20 10° NNW 03:11:28 61° ENE 03:13:58 30° SE
Cosmos 2151 Rocket 4.2 03:14:44 41° W 03:14:58 42° WNW 03:19:14 10° N
Okean 1 Rocket 3.1 03:16:19 58° SSE 03:17:01 71° E 03:21:29 10° NNE
PSLV R/B 3.5 03:13:46 10° N 03:17:56 64° WNW 03:18:15 61° W
CZ-4C R/B 4.1 03:13:29 10° WNW 03:18:45 22° WSW 03:18:45 22° WSW
Okean 1-7 Rocket 3.7 03:18:37 10° N 03:23:12 75° E 03:24:24 48° SSE
CZ-2D R/B 4.3 03:21:02 10° NE 03:24:47 19° E 03:28:30 10° SE
Cosmos 489 Rocket 4.4 03:18:42 10° NNW 03:24:59 85° ENE 03:28:37 27° SSE
ERS-2 2.6 03:23:59 10° NNE 03:27:37 50° ESE 03:28:00 47° ESE
Cosmos 1000 Rocket 4.4 03:22:05 10° N 03:28:15 82° W 03:30:54 37° S
SL-24 DEB 4.1 03:25:10 10° N 03:29:50 90° E 03:31:00 52° S
Cosmos 1025 Rocket 4.1 03:26:48 10° N 03:30:53 40° ENE 03:33:09 22° SE
NOSS 8 (A) 4.4 03:38:43 76° SSE 03:38:52 79° ESE 03:42:33 10° NE
Cosmos 1452 Rocket 3.6 03:37:27 42° SW 03:39:04 63° WNW 03:44:19 10° NNE
ARIANE 5 R/B 3.8 03:35:27 10° NNE 03:39:54 32° E 03:42:55 18° SSE
Meteor 2-21 Rocket 4.4 03:37:34 34° S 03:40:25 82° E 03:46:33 10° N
IRS-1C 4.2 03:37:01 10° NNE 03:42:22 70° ESE 03:44:44 34° S
Cosmos 1420 Rocket 4.0 03:45:14 38° S 03:47:18 80° ESE 03:52:37 10° NNE
Cosmos 1812 3.6 03:44:00 10° NNW 03:47:22 34° W 03:47:22 34° W
GP-B 3.1 03:43:18 10° N 03:47:42 64° W 03:48:48 47° SW
Cosmos 1536 3.2 03:47:37 37° SSE 03:48:57 59° E 03:52:57 10° NNE
CBERS-1 4.0 03:45:33 10° N 03:50:42 81° WNW 03:52:47 37° SSW
Cosmos 1605 Rocket 4.1 03:47:06 26° S 03:50:45 70° E 03:57:01 10° NNE
Cosmos 1809 Rocket 4.5 03:48:27 35° SSW 03:51:09 68° W 03:57:18 10° N
Cosmos 1821 Rocket 4.1 03:48:54 33° SSW 03:51:53 69° W 03:58:17 10° N
Cosmos 1844 Rocket 3.0 03:49:51 34° SW 03:52:12 58° WNW 03:57:49 10° NNE
NOSS 2-2 (D) 3.5 03:52:27 46° SW 03:53:39 81° WNW 03:58:26 10° NNE
Meteor 1-19 Rocket 4.3 03:48:28 10° N 03:54:20 82° E 03:58:33 20° SSE
Cosmos 2123 Rocket 4.0 03:49:46 10° N 03:56:09 90° WSW 04:00:32 21° S
Cosmos 1140 Rocket 3.3 03:51:06 10° NNW 03:56:15 80° WSW 03:59:21 24° SSE
ATLAS 2A CENTAUR R/B 4.0 03:54:19 26° SSW 03:56:45 30° SSE 04:17:20 10° ESE
Cosmos 2263 Rocket 4.4 03:54:08 10° WNW 03:57:08 14° NW 04:00:07 10° NNW
IRAS Rocket 4.4 03:52:06 10° N 03:57:34 61° WNW 04:00:04 32° SW
Gbstr 26 Del rocket 3.5 03:56:02 28° W 03:57:44 47° NNW 04:01:24 10° NE
SL-16 R/B 3.3 03:52:46 10° SE 03:58:47 53° ENE 04:04:46 10° N
Resurs 1-4 Rocket 3.3 03:54:11 10° NNE 03:59:05 37° E 04:03:07 14° SSE
Meteor 2-16 Rocket 4.4 03:59:47 29° SSW 04:03:10 82° W 04:09:21 10° N
Cosmos 1544 Rocket 3.9 04:02:40 27° SSE 04:04:56 62° E 04:09:17 10° NNE
ADEOS 3.5 04:01:12 10° NNE 04:06:27 85° WNW 04:09:11 29° SSW
NOSS 2-2 (C) 3.9 04:06:30 34° WSW 04:08:09 58° NW 04:12:55 10° NNE
COSMOS 2487 2.5 04:04:54 10° NNW 04:08:29 63° WSW 04:09:22 45° SSW
SL-08 R/B 3.9 04:08:12 32° SW 04:09:47 42° W 04:14:26 10° NNW
Cosmos 1844 4.0 04:07:06 29° SW 04:09:55 56° WNW 04:15:36 10° NNE
Cosmos 1633 2.4 04:10:16 43° SSW 04:11:22 84° W 04:15:01 10° N
ATLAS 5 CENTAUR R/B 2.5 04:05:57 10° NNW 04:12:00 84° NE 04:18:27 10° SE
Meteor 1-11 Rocket 4.0 04:11:07 28° SSW 04:14:17 61° WNW 04:20:13 10° N
Cosmos 1850 Rocket 4.0 04:15:32 10° NNW 04:20:43 64° WSW 04:24:56 16° S
USA 161 1.5 04:20:43 51° SSW 04:21:10 62° W 04:24:07 10° NNW
Cosmos 2278 Rocket 2.3 04:18:39 27° SW 04:21:49 66° WNW 04:27:30 10° NNE
Cosmos 2297 3.9 04:20:31 21° S 04:24:18 68° ESE 04:29:58 10° NNE
Cosmos 1741 Rocket 4.0 04:19:11 10° NNW 04:24:23 61° WSW 04:28:39 15° S
Cosmos 1400 Rocket 2.8 04:26:04 31° SSW 04:27:48 65° W 04:31:44 10° N
Meteor 1-23 Rocket 4.2 04:22:55 10° NNW 04:28:38 74° W 04:33:39 13° S
Cosmos 1461 3.8 04:26:38 23° WSW 04:29:11 46° NW 04:33:38 10° NNE
Cosmos 1892 Rocket 3.5 04:25:04 10° NNW 04:29:24 66° W 04:32:13 21° S
Spot 4 Rocket 4.3 04:27:44 10° N 04:32:47 56° WNW 04:36:00 22° SW
Cosmos 1459 Rocket 4.3 04:31:45 10° S 04:38:01 67° E 04:44:16 10° NNE
Meteor 1-5 Rocket 4.3 04:33:54 16° S 04:38:40 89° W 04:44:24 10° N
Cosmos 2082 Rocket 2.5 04:34:58 10° NNW 04:40:43 73° ENE 04:46:24 10° SSE
Cosmos 1802 Rocket 4.5 04:35:18 10° S 04:41:18 60° E 04:47:19 10° NNE
BREEZE-M DEB (TANK) 2.6 04:42:38 24° SSW 04:43:45 35° SSE 04:46:28 10° ENE
Cosmos 614 Rocket 4.4 04:43:14 10° NNW 04:48:03 41° WSW 04:52:24 12° S
Cosmos 2100 Rocket 4.1 04:42:55 10° S 04:49:06 87° E 04:55:28 10° N
USA 234 3.5 04:42:58 10° SSE 04:49:06 43° SW 04:55:18 10° WNW
IRS-1D 3.7 04:47:05 10° N 04:52:04 58° WNW 04:55:57 16° SSW
MTI 3.8 04:49:22 10° SSE 04:52:40 87° WSW 04:55:59 10° NNW
APEX 2.6 04:53:09 22° SSW 04:54:53 76° WNW 04:58:22 10° NNE
Meteor 2-4 Rocket 4.2 04:51:05 10° NNW 04:56:02 39° W 05:00:20 13° SSW
Cosmos 1315 Rocket 3.2 04:55:24 18° SSW 04:58:12 49° WNW 05:02:08 10° N
CENTAUR R/B 3.9 04:52:42 10° NW 04:59:11 28° WSW 05:05:53 10° SSW
Cosmos 1602 Rocket 3.5 04:55:02 10° N 04:59:24 89° WSW 05:03:45 10° S
SME Rocket 3.1 04:56:05 10° S 04:59:42 50° W 05:03:53 10° NNW
ERS-2 4.5 04:59:38 10° NW 05:00:58 12° WNW 05:02:18 10° W
MOS 1-B 4.4 04:56:11 10° N 05:02:00 74° WNW 05:07:42 10° SSW
Cosmos 1346 Rocket 3.5 04:58:15 10° N 05:02:15 57° ENE 05:06:11 10° SSE
CZ-2D R/B 2.4 04:59:50 10° N 05:05:11 58° WNW 05:10:16 11° SSW
Cosmos 1174 3.5 05:06:24 10° NW 05:09:49 45° WSW 05:12:46 10° S
Cosmos 1486 Rocket 4.1 05:08:44 10° NNW 05:14:06 85° ENE 05:19:27 10° SSE
UNK 4.5 05:10:57 10° SSW 05:15:08 34° W 05:19:23 10° NNW
Okean O Rocket 1.7 05:10:50 10° NNE 05:15:12 82° ESE 05:19:33 10° S
Meteor 1-12 Rocket 4.3 05:09:45 10° SSW 05:15:35 73° W 05:21:22 10° N
Cosmos 1626 Rocket 3.7 05:12:01 10° NNW 05:16:20 57° W 05:20:39 10° S
Cosmos 1455 Rocket 4.1 05:13:29 13° SW 05:16:52 29° WNW 05:20:46 10° NNW
Cosmos 1975 2.8 05:13:05 10° SSW 05:17:02 66° W 05:21:02 10° N
CZ-4B R/B 3.9 05:12:54 10° NNE 05:17:22 54° E 05:21:41 10° S
UNKNOWN OBJECT B 3.3 05:14:22 10° N 05:18:18 46° WNW 05:22:11 10° SSW
Cosmos 1833 Rocket 2.6 05:12:49 10° NNW 05:18:25 72° WSW 05:23:59 10° SSE
ARIANE 5 R/B 3.6 05:14:39 10° N 05:18:57 30° WNW 05:23:14 10° SW
Cosmos 1110 Rocket 4.5 05:16:23 11° SW 05:21:16 49° WNW 05:26:24 10° N
Cosmos 2098 Rocket 3.9 05:21:49 10° SSE 05:25:20 48° E 05:29:46 10° NNE
Cosmos 2061 Rocket 4.3 05:19:44 10° SSW 05:25:55 54° WNW 05:32:12 10° N
DNEPR-1 R/B 3.8 05:24:32 10° NW 05:30:07 78° WSW 05:34:41 10° SSE
PSLV R/B 4.1 05:29:19 10° N 05:33:25 61° WNW 05:37:26 10° SSW
USA 229 DEB 4.2 05:27:47 10° NNW 05:34:55 73° NE 05:42:05 10° SE
USA 229 4.2 05:27:52 10° NNW 05:35:00 72° NE 05:42:10 10° SE
IRS-1C Rocket 4.3 05:32:15 10° N 05:37:25 58° WNW 05:42:34 10° SSW
Resurs 1-4 Rocket 3.2 05:34:16 10° N 05:38:46 28° WNW 05:43:13 10° SW
SL-16 R/B 3.6 05:37:43 10° SSW 05:42:40 25° W 05:47:38 10° NW
